Tabellarische Ansicht des 22.4.2013


Die einzelnen Werte des Tages

Uhrzeit Temperatur Luftdruck Luftfeuchte Wind Hi-Wind Taupunkt THW Index Wind Chill Heat Index Solar- strahlung Regen

00:00

11.9 C

1011.9 hpa

73 %

0.0 km/h aus 105

0.0 km/h aus ---

7.2 C

11.6 C

11.9 C

11.6 C

0 W/m

0.00 mm

00:05

11.9 C

1011.9 hpa

74 %

0.0 km/h aus 110

0.0 km/h aus ---

7.4 C

11.6 C

11.9 C

11.6 C

0 W/m

0.00 mm

00:10

11.9 C

1011.9 hpa

74 %

0.0 km/h aus 110

0.0 km/h aus ---

7.4 C

11.6 C

11.9 C

11.6 C

0 W/m

0.00 mm

00:15

11.8 C

1011.9 hpa

75 %

0.0 km/h aus 107

0.0 km/h aus ---

7.5 C

11.6 C

11.8 C

11.6 C

0 W/m

0.00 mm

00:20

11.8 C

1011.9 hpa

75 %

0.0 km/h aus 103

0.0 km/h aus ---

7.5 C

11.6 C

11.8 C

11.6 C

0 W/m

0.00 mm

00:25

11.8 C

1011.9 hpa

75 %

0.0 km/h aus 112

1.6 km/h aus ENE

7.5 C

11.5 C

11.8 C

11.5 C

0 W/m

0.00 mm

00:30

11.7 C

1011.9 hpa

75 %

0.0 km/h aus 107

1.6 km/h aus ENE

7.4 C

11.4 C

11.7 C

11.4 C

0 W/m

0.00 mm

00:35

11.7 C

1011.9 hpa

75 %

0.0 km/h aus 111

0.0 km/h aus ---

7.4 C

11.4 C

11.7 C

11.4 C

0 W/m

0.00 mm

00:40

11.7 C

1011.9 hpa

75 %

0.0 km/h aus 105

0.0 km/h aus ---

7.4 C

11.4 C

11.7 C

11.4 C

0 W/m

0.00 mm

00:45

11.7 C

1011.9 hpa

75 %

0.0 km/h aus 103

0.0 km/h aus ---

7.4 C

11.4 C

11.7 C

11.4 C

0 W/m

0.00 mm

00:50

11.6 C

1011.9 hpa

76 %

0.0 km/h aus 107

0.0 km/h aus ---

7.5 C

11.4 C

11.6 C

11.4 C

0 W/m

0.00 mm

00:55

11.6 C

1011.9 hpa

76 %

0.0 km/h aus 108

0.0 km/h aus ---

7.5 C

11.4 C

11.6 C

11.4 C

0 W/m

0.00 mm

01:00

11.6 C

1011.9 hpa

76 %

0.0 km/h aus 112

0.0 km/h aus ---

7.5 C

11.3 C

11.6 C

11.3 C

0 W/m

0.00 mm

01:05

11.5 C

1011.9 hpa

76 %

0.0 km/h aus 110

0.0 km/h aus ---

7.4 C

11.3 C

11.5 C

11.3 C

0 W/m

0.00 mm

01:10

11.5 C

1011.9 hpa

76 %

0.0 km/h aus 101

0.0 km/h aus ---

7.4 C

11.3 C

11.5 C

11.3 C

0 W/m

0.00 mm

01:15

11.4 C

1011.9 hpa

76 %

0.0 km/h aus 104

0.0 km/h aus ---

7.4 C

11.2 C

11.4 C

11.2 C

0 W/m

0.00 mm

01:20

11.4 C

1011.9 hpa

77 %

1.6 km/h aus 106

4.8 km/h aus ENE

7.6 C

11.2 C

11.4 C

11.2 C

0 W/m

0.00 mm

01:25

11.4 C

1011.9 hpa

77 %

6.4 km/h aus 109

14.5 km/h aus WSW

7.6 C

10.8 C

11.1 C

11.2 C

0 W/m

0.00 mm

01:30

11.4 C

1012.0 hpa

76 %

8.0 km/h aus 103

14.5 km/h aus WSW

7.3 C

10.4 C

10.7 C

11.2 C

0 W/m

0.00 mm

01:35

11.4 C

1012.0 hpa

76 %

6.4 km/h aus 107

14.5 km/h aus W

7.4 C

10.8 C

11.1 C

11.2 C

0 W/m

0.00 mm

01:40

11.5 C

1012.0 hpa

74 %

6.4 km/h aus 109

11.3 km/h aus W

7.0 C

10.8 C

11.1 C

11.2 C

0 W/m

0.00 mm

01:45

11.6 C

1011.9 hpa

73 %

6.4 km/h aus 108

11.3 km/h aus W

6.9 C

10.8 C

11.2 C

11.2 C

0 W/m

0.00 mm

01:50

11.6 C

1011.9 hpa

72 %

6.4 km/h aus 113

14.5 km/h aus W

6.7 C

10.9 C

11.2 C

11.3 C

0 W/m

0.00 mm

01:55

11.7 C

1011.9 hpa

71 %

8.0 km/h aus 105

16.1 km/h aus W

6.6 C

10.6 C

10.9 C

11.3 C

0 W/m

0.00 mm

02:00

11.7 C

1011.9 hpa

70 %

8.0 km/h aus 100

16.1 km/h aus W

6.4 C

10.6 C

11.0 C

11.3 C

0 W/m

0.00 mm

02:05

11.8 C

1011.9 hpa

70 %

6.4 km/h aus 111

9.7 km/h aus W

6.5 C

11.0 C

11.4 C

11.4 C

0 W/m

0.00 mm

02:10

11.8 C

1011.9 hpa

69 %

8.0 km/h aus 98

16.1 km/h aus W

6.3 C

10.7 C

11.1 C

11.4 C

0 W/m

0.00 mm

02:15

11.8 C

1011.9 hpa

69 %

6.4 km/h aus 106

9.7 km/h aus WSW

6.3 C

11.0 C

11.4 C

11.4 C

0 W/m

0.00 mm

02:20

11.8 C

1011.9 hpa

69 %

6.4 km/h aus 108

9.7 km/h aus WSW

6.3 C

11.0 C

11.4 C

11.4 C

0 W/m

0.00 mm

02:25

11.8 C

1011.9 hpa

69 %

6.4 km/h aus 108

11.3 km/h aus W

6.3 C

11.0 C

11.4 C

11.4 C

0 W/m

0.00 mm

02:30

11.8 C

1011.9 hpa

69 %

4.8 km/h aus 106

11.3 km/h aus WSW

6.3 C

11.4 C

11.8 C

11.4 C

0 W/m

0.00 mm

02:35

11.8 C

1011.9 hpa

69 %

6.4 km/h aus 107

14.5 km/h aus WSW

6.3 C

11.1 C

11.5 C

11.4 C

0 W/m

0.00 mm

02:40

11.8 C

1011.9 hpa

69 %

4.8 km/h aus 106

11.3 km/h aus WSW

6.3 C

11.4 C

11.8 C

11.4 C

0 W/m

0.00 mm

02:45

11.8 C

1011.9 hpa

68 %

4.8 km/h aus 101

9.7 km/h aus WSW

6.1 C

11.4 C

11.8 C

11.4 C

0 W/m

0.00 mm

02:50

11.8 C

1011.9 hpa

68 %

6.4 km/h aus 101

9.7 km/h aus WSW

6.1 C

11.1 C

11.5 C

11.4 C

0 W/m

0.00 mm

02:55

11.8 C

1011.9 hpa

68 %

6.4 km/h aus 105

9.7 km/h aus WSW

6.1 C

11.1 C

11.5 C

11.4 C

0 W/m

0.00 mm

03:00

11.8 C

1011.9 hpa

68 %

6.4 km/h aus 110

12.9 km/h aus SW

6.1 C

11.1 C

11.5 C

11.4 C

0 W/m

0.00 mm

03:05

11.8 C

1011.9 hpa

68 %

6.4 km/h aus 103

11.3 km/h aus SW

6.1 C

10.9 C

11.4 C

11.3 C

0 W/m

0.00 mm

03:10

11.8 C

1011.9 hpa

68 %

6.4 km/h aus 102

11.3 km/h aus WSW

6.1 C

10.9 C

11.4 C

11.3 C

0 W/m

0.00 mm

03:15

11.7 C

1011.9 hpa

68 %

8.0 km/h aus 107

16.1 km/h aus SW

6.0 C

10.6 C

11.0 C

11.3 C

0 W/m

0.00 mm

03:20

11.7 C

1011.9 hpa

67 %

8.0 km/h aus 104

11.3 km/h aus WSW

5.8 C

10.6 C

11.0 C

11.3 C

0 W/m

0.00 mm

03:25

11.7 C

1011.9 hpa

67 %

4.8 km/h aus 99

8.0 km/h aus WSW

5.8 C

11.3 C

11.7 C

11.3 C

0 W/m

0.00 mm

03:30

11.7 C

1011.9 hpa

67 %

3.2 km/h aus 105

14.5 km/h aus SW

5.8 C

11.3 C

11.7 C

11.3 C

0 W/m

0.00 mm

03:35

11.7 C

1011.9 hpa

66 %

8.0 km/h aus 103

16.1 km/h aus WSW

5.5 C

10.4 C

10.9 C

11.2 C

0 W/m

0.00 mm

03:40

11.7 C

1011.9 hpa

66 %

6.4 km/h aus 107

11.3 km/h aus SW

5.5 C

10.8 C

11.3 C

11.2 C

0 W/m

0.00 mm

03:45

11.7 C

1012.0 hpa

66 %

6.4 km/h aus 106

9.7 km/h aus WSW

5.5 C

10.8 C

11.3 C

11.2 C

0 W/m

0.00 mm

03:50

11.7 C

1012.0 hpa

66 %

3.2 km/h aus 102

8.0 km/h aus WSW

5.5 C

11.2 C

11.7 C

11.2 C

0 W/m

0.00 mm

03:55

11.7 C

1012.0 hpa

66 %

8.0 km/h aus 109

16.1 km/h aus W

5.5 C

10.4 C

10.9 C

11.2 C

0 W/m

0.00 mm

04:00

11.7 C

1012.0 hpa

66 %

8.0 km/h aus 108

16.1 km/h aus W

5.5 C

10.4 C

10.9 C

11.2 C

0 W/m

0.00 mm

04:05

11.7 C

1012.0 hpa

66 %

8.0 km/h aus 110

12.9 km/h aus WSW

5.5 C

10.4 C

10.9 C

11.2 C

0 W/m

0.00 mm

04:10

11.6 C

1012.0 hpa

66 %

8.0 km/h aus 105

16.1 km/h aus W

5.5 C

10.4 C

10.9 C

11.2 C

0 W/m

0.00 mm

04:15

11.6 C

1012.1 hpa

67 %

8.0 km/h aus 112

11.3 km/h aus WSW

5.7 C

10.4 C

10.9 C

11.2 C

0 W/m

0.00 mm

04:20

11.6 C

1012.1 hpa

67 %

8.0 km/h aus 107

16.1 km/h aus WSW

5.6 C

10.4 C

10.8 C

11.1 C

0 W/m

0.00 mm

04:25

11.6 C

1012.1 hpa

67 %

6.4 km/h aus 112

16.1 km/h aus WSW

5.6 C

10.7 C

11.2 C

11.1 C

0 W/m

0.00 mm

04:30

11.5 C

1012.2 hpa

68 %

8.0 km/h aus 107

17.7 km/h aus W

5.8 C

10.4 C

10.8 C

11.1 C

0 W/m

0.00 mm

04:35

11.4 C

1012.2 hpa

68 %

8.0 km/h aus 103

12.9 km/h aus WSW

5.7 C

10.3 C

10.7 C

11.1 C

0 W/m

0.00 mm

04:40

11.4 C

1012.2 hpa

68 %

6.4 km/h aus 102

11.3 km/h aus W

5.7 C

10.6 C

11.0 C

11.0 C

0 W/m

0.00 mm

04:45

11.3 C

1012.1 hpa

68 %

8.0 km/h aus 108

16.1 km/h aus W

5.6 C

10.2 C

10.6 C

10.9 C

0 W/m

0.00 mm

04:50

11.3 C

1012.1 hpa

69 %

8.0 km/h aus 105

16.1 km/h aus WSW

5.8 C

10.2 C

10.6 C

10.9 C

0 W/m

0.00 mm

04:55

11.3 C

1012.1 hpa

69 %

4.8 km/h aus 106

11.3 km/h aus WSW

5.8 C

10.8 C

11.2 C

10.9 C

0 W/m

0.00 mm

05:00

11.2 C

1012.2 hpa

70 %

4.8 km/h aus 97

11.3 km/h aus WSW

5.9 C

10.8 C

11.2 C

10.9 C

0 W/m

0.00 mm

05:05

11.2 C

1012.2 hpa

70 %

4.8 km/h aus 103

14.5 km/h aus WSW

5.9 C

10.8 C

11.1 C

10.8 C

0 W/m

0.00 mm

05:10

11.1 C

1012.2 hpa

70 %

9.7 km/h aus 105

16.1 km/h aus WSW

5.8 C

9.7 C

10.0 C

10.8 C

0 W/m

0.00 mm

05:15

11.1 C

1012.2 hpa

70 %

6.4 km/h aus 112

11.3 km/h aus WSW

5.8 C

10.3 C

10.6 C

10.7 C

0 W/m

0.00 mm

05:20

11.0 C

1012.2 hpa

70 %

8.0 km/h aus 110

14.5 km/h aus W

5.7 C

9.9 C

10.2 C

10.7 C

0 W/m

0.00 mm

05:25

10.9 C

1012.2 hpa

71 %

9.7 km/h aus 110

17.7 km/h aus W

5.9 C

9.6 C

9.8 C

10.7 C

0 W/m

0.00 mm

05:30

10.9 C

1012.3 hpa

71 %

11.3 km/h aus 107

19.3 km/h aus WSW

5.8 C

9.2 C

9.5 C

10.6 C

0 W/m

0.00 mm

05:35

10.8 C

1012.3 hpa

71 %

6.4 km/h aus 101

11.3 km/h aus W

5.8 C

10.1 C

10.3 C

10.6 C

0 W/m

0.00 mm

05:40

10.8 C

1012.3 hpa

71 %

11.3 km/h aus 106

17.7 km/h aus W

5.8 C

9.2 C

9.4 C

10.6 C

0 W/m

0.00 mm

05:45

10.8 C

1012.3 hpa

71 %

8.0 km/h aus 106

16.1 km/h aus WSW

5.7 C

9.7 C

9.9 C

10.5 C

0 W/m

0.00 mm

05:50

10.7 C

1012.3 hpa

72 %

9.7 km/h aus 102

19.3 km/h aus W

5.8 C

9.3 C

9.5 C

10.4 C

0 W/m

0.00 mm

05:55

10.6 C

1012.3 hpa

72 %

9.7 km/h aus 113

17.7 km/h aus WSW

5.8 C

9.2 C

9.4 C

10.4 C

0 W/m

0.00 mm

06:00

10.6 C

1012.3 hpa

72 %

9.7 km/h aus 105

16.1 km/h aus W

5.7 C

9.2 C

9.4 C

10.3 C

0 W/m

0.00 mm

06:05

10.5 C

1012.3 hpa

72 %

8.0 km/h aus 110

14.5 km/h aus W

5.7 C

9.4 C

9.6 C

10.3 C

0 W/m

0.00 mm

06:10

10.4 C

1012.3 hpa

72 %

6.4 km/h aus 108

11.3 km/h aus W

5.6 C

9.7 C

9.9 C

10.2 C

0 W/m

0.00 mm

06:15

10.4 C

1012.4 hpa

72 %

4.8 km/h aus 112

9.7 km/h aus W

5.6 C

10.1 C

10.3 C

10.2 C

0 W/m

0.00 mm

06:20

10.3 C

1012.4 hpa

72 %

8.0 km/h aus 102

16.1 km/h aus WSW

5.5 C

9.2 C

9.4 C

10.1 C

0 W/m

0.00 mm

06:25

10.3 C

1012.4 hpa

72 %

9.7 km/h aus 110

19.3 km/h aus WSW

5.4 C

8.8 C

9.1 C

10.1 C

0 W/m

0.00 mm

06:30

10.3 C

1012.4 hpa

72 %

6.4 km/h aus 108

9.7 km/h aus W

5.4 C

9.5 C

9.7 C

10.1 C

0 W/m

0.00 mm

06:35

10.2 C

1012.4 hpa

72 %

4.8 km/h aus 105

8.0 km/h aus W

5.4 C

9.8 C

10.1 C

10.0 C

0 W/m

0.00 mm

06:40

10.2 C

1012.4 hpa

72 %

8.0 km/h aus 109

14.5 km/h aus WSW

5.3 C

9.0 C

9.2 C

9.9 C

0 W/m

0.00 mm

06:45

10.2 C

1012.5 hpa

72 %

6.4 km/h aus 104

12.9 km/h aus WSW

5.3 C

9.3 C

9.6 C

9.9 C

0 W/m

0.00 mm

06:50

10.2 C

1012.5 hpa

72 %

6.4 km/h aus 113

11.3 km/h aus SW

5.3 C

9.3 C

9.6 C

9.9 C

0 W/m

0.00 mm

06:55

10.1 C

1012.5 hpa

72 %

6.4 km/h aus 107

11.3 km/h aus W

5.3 C

9.3 C

9.5 C

9.9 C

0 W/m

0.00 mm

07:00

10.1 C

1012.7 hpa

73 %

6.4 km/h aus 111

16.1 km/h aus W

5.5 C

9.3 C

9.5 C

9.9 C

0 W/m

0.00 mm

07:05

10.1 C

1012.7 hpa

73 %

4.8 km/h aus 102

9.7 km/h aus W

5.4 C

9.7 C

9.9 C

9.9 C

0 W/m

0.00 mm

07:10

10.1 C

1012.7 hpa

73 %

8.0 km/h aus 109

17.7 km/h aus W

5.4 C

8.9 C

9.1 C

9.9 C

0 W/m

0.00 mm

07:15

10.0 C

1012.9 hpa

73 %

9.7 km/h aus 103

14.5 km/h aus W

5.4 C

8.6 C

8.7 C

9.8 C

0 W/m

0.00 mm

07:20

10.0 C

1012.9 hpa

73 %

9.7 km/h aus 105

16.1 km/h aus W

5.4 C

8.6 C

8.7 C

9.8 C

0 W/m

0.00 mm

07:25

9.9 C

1012.9 hpa

73 %

9.7 km/h aus 110

16.1 km/h aus W

5.3 C

8.5 C

8.7 C

9.8 C

0 W/m

0.00 mm

07:30

9.9 C

1013.0 hpa

73 %

8.0 km/h aus 113

16.1 km/h aus W

5.3 C

8.8 C

8.9 C

9.8 C

0 W/m

0.00 mm

07:35

9.9 C

1013.0 hpa

73 %

6.4 km/h aus 101

12.9 km/h aus WSW

5.3 C

9.1 C

9.3 C

9.7 C

0 W/m

0.00 mm

07:40

9.9 C

1013.0 hpa

73 %

4.8 km/h aus 103

11.3 km/h aus W

5.3 C

9.6 C

9.7 C

9.7 C

0 W/m

0.00 mm

07:45

9.9 C

1013.2 hpa

73 %

3.2 km/h aus 107

11.3 km/h aus W

5.3 C

9.7 C

9.9 C

9.7 C

0 W/m

0.00 mm

07:50

9.8 C

1013.2 hpa

73 %

8.0 km/h aus 101

12.9 km/h aus WSW

5.2 C

8.6 C

8.8 C

9.7 C

0 W/m

0.00 mm

07:55

9.8 C

1013.2 hpa

73 %

8.0 km/h aus 102

17.7 km/h aus W

5.2 C

8.6 C

8.8 C

9.7 C

0 W/m

0.00 mm

08:00

9.8 C

1013.4 hpa

73 %

8.0 km/h aus 111

14.5 km/h aus WSW

5.2 C

8.6 C

8.7 C

9.6 C

0 W/m

0.00 mm

08:05

9.8 C

1013.4 hpa

74 %

11.3 km/h aus 108

17.7 km/h aus W

5.4 C

8.0 C

8.2 C

9.6 C

0 W/m

0.00 mm

08:10

9.8 C

1013.4 hpa

74 %

6.4 km/h aus 103

12.9 km/h aus W

5.4 C

8.9 C

9.1 C

9.6 C

0 W/m

0.00 mm

08:15

9.7 C

1013.4 hpa

74 %

11.3 km/h aus 102

17.7 km/h aus WSW

5.3 C

7.9 C

8.1 C

9.6 C

0 W/m

0.00 mm

08:20

9.7 C

1013.4 hpa

74 %

9.7 km/h aus 111

16.1 km/h aus W

5.3 C

8.2 C

8.4 C

9.6 C

0 W/m

0.00 mm

08:25

9.7 C

1013.4 hpa

74 %

9.7 km/h aus 106

19.3 km/h aus W

5.3 C

8.2 C

8.4 C

9.6 C

0 W/m

0.00 mm

08:30

9.7 C

1013.7 hpa

74 %

11.3 km/h aus 106

17.7 km/h aus W

5.3 C

7.9 C

8.1 C

9.5 C

0 W/m

0.00 mm

08:35

9.7 C

1013.7 hpa

74 %

8.0 km/h aus 107

14.5 km/h aus W

5.3 C

8.5 C

8.7 C

9.6 C

0 W/m

0.00 mm

08:40

9.7 C

1013.7 hpa

74 %

11.3 km/h aus 111

17.7 km/h aus WNW

5.3 C

7.9 C

8.1 C

9.6 C

0 W/m

0.00 mm

08:45

9.7 C

1013.8 hpa

74 %

9.7 km/h aus 111

17.7 km/h aus WSW

5.3 C

8.2 C

8.4 C

9.6 C

0 W/m

0.00 mm

08:50

9.7 C

1013.8 hpa

75 %

9.7 km/h aus 112

16.1 km/h aus WSW

5.5 C

8.3 C

8.4 C

9.6 C

0 W/m

0.00 mm

08:55

9.7 C

1013.8 hpa

75 %

6.4 km/h aus 110

14.5 km/h aus WNW

5.5 C

8.9 C

9.1 C

9.6 C

0 W/m

0.00 mm

09:00

9.7 C

1013.8 hpa

75 %

4.8 km/h aus 106

9.7 km/h aus W

5.5 C

9.4 C

9.5 C

9.6 C

0 W/m

0.00 mm

09:05

9.7 C

1013.8 hpa

75 %

6.4 km/h aus 108

11.3 km/h aus WSW

5.5 C

8.9 C

9.1 C

9.6 C

0 W/m

0.00 mm

09:10

9.8 C

1013.8 hpa

75 %

6.4 km/h aus 111

11.3 km/h aus WSW

5.6 C

9.0 C

9.1 C

9.7 C

0 W/m

0.00 mm

09:15

9.8 C

1013.9 hpa

75 %

4.8 km/h aus 103

11.3 km/h aus W

5.6 C

9.4 C

9.6 C

9.7 C

0 W/m

0.00 mm

09:20

9.8 C

1013.9 hpa

75 %

6.4 km/h aus 101

11.3 km/h aus WNW

5.6 C

9.0 C

9.1 C

9.7 C

0 W/m

0.00 mm

09:20

9.8 C

1013.9 hpa

75 %

6.4 km/h aus 101

11.3 km/h aus WNW

5.6 C

9.0 C

9.1 C

9.7 C

0 W/m

0.00 mm

09:25

9.8 C

1013.9 hpa

75 %

8.0 km/h aus 108

14.5 km/h aus NW

5.6 C

8.6 C

8.7 C

9.7 C

0 W/m

0.00 mm

09:25

9.8 C

1013.9 hpa

75 %

8.0 km/h aus 108

14.5 km/h aus NW

5.6 C

8.6 C

8.7 C

9.7 C

0 W/m

0.00 mm

09:30

9.8 C

1013.9 hpa

76 %

6.4 km/h aus 98

11.3 km/h aus NW

5.7 C

9.0 C

9.1 C

9.7 C

0 W/m

0.00 mm

09:30

9.8 C

1013.9 hpa

76 %

6.4 km/h aus 98

11.3 km/h aus NW

5.7 C

9.0 C

9.1 C

9.7 C

0 W/m

0.00 mm

09:35

9.8 C

1013.9 hpa

76 %

6.4 km/h aus 103

11.3 km/h aus WNW

5.7 C

9.0 C

9.1 C

9.7 C

0 W/m

0.00 mm

09:35

9.8 C

1013.9 hpa

76 %

6.4 km/h aus 103

11.3 km/h aus WNW

5.7 C

9.0 C

9.1 C

9.7 C

0 W/m

0.00 mm

09:40

9.7 C

1013.9 hpa

76 %

6.4 km/h aus 102

14.5 km/h aus W

5.7 C

8.9 C

9.1 C

9.6 C

0 W/m

0.00 mm

09:40

9.7 C

1013.9 hpa

76 %

6.4 km/h aus 102

14.5 km/h aus W

5.7 C

8.9 C

9.1 C

9.6 C

0 W/m

0.00 mm

09:45

9.7 C

1013.9 hpa

76 %

6.4 km/h aus 109

11.3 km/h aus W

5.6 C

8.9 C

9.0 C

9.6 C

0 W/m

0.00 mm

09:45

9.7 C

1013.9 hpa

76 %

6.4 km/h aus 109

11.3 km/h aus W

5.6 C

8.9 C

9.0 C

9.6 C

0 W/m

0.00 mm

09:50

9.6 C

1013.9 hpa

76 %

6.4 km/h aus 111

14.5 km/h aus WNW

5.6 C

8.8 C

8.9 C

9.5 C

0 W/m

0.00 mm

09:50

9.6 C

1013.9 hpa

76 %

6.4 km/h aus 111

14.5 km/h aus WNW

5.6 C

8.8 C

8.9 C

9.5 C

0 W/m

0.00 mm

09:55

9.6 C

1013.9 hpa

76 %

8.0 km/h aus 115

14.5 km/h aus NW

5.5 C

8.3 C

8.4 C

9.4 C

0 W/m

0.00 mm

09:55

9.6 C

1013.9 hpa

76 %

8.0 km/h aus 115

14.5 km/h aus NW

5.5 C

8.3 C

8.4 C

9.4 C

0 W/m

0.00 mm

10:00

9.6 C

1014.1 hpa

76 %

8.0 km/h aus 101

16.1 km/h aus WNW

5.5 C

8.3 C

8.4 C

9.4 C

0 W/m

0.00 mm

10:00

9.6 C

1014.1 hpa

76 %

8.0 km/h aus 101

16.1 km/h aus WNW

5.5 C

8.3 C

8.4 C

9.4 C

0 W/m

0.00 mm

10:05

9.5 C

1014.1 hpa

76 %

9.7 km/h aus 105

16.1 km/h aus W

5.5 C

7.9 C

8.1 C

9.3 C

0 W/m

0.00 mm

10:05

9.5 C

1014.1 hpa

76 %

9.7 km/h aus 105

16.1 km/h aus W

5.5 C

7.9 C

8.1 C

9.3 C

0 W/m

0.00 mm

10:10

9.4 C

1014.1 hpa

76 %

6.4 km/h aus 109

9.7 km/h aus W

5.4 C

8.6 C

8.7 C

9.3 C

0 W/m

0.00 mm

10:10

9.4 C

1014.1 hpa

76 %

6.4 km/h aus 109

9.7 km/h aus W

5.4 C

8.6 C

8.7 C

9.3 C

0 W/m

0.00 mm

10:15

9.4 C

1014.1 hpa

76 %

6.4 km/h aus 102

11.3 km/h aus WSW

5.4 C

8.5 C

8.7 C

9.2 C

0 W/m

0.00 mm

10:15

9.4 C

1014.1 hpa

76 %

6.4 km/h aus 102

11.3 km/h aus WSW

5.4 C

8.5 C

8.7 C

9.2 C

0 W/m

0.00 mm

10:20

9.4 C

1014.1 hpa

77 %

6.4 km/h aus 107

14.5 km/h aus W

5.6 C

8.6 C

8.7 C

9.3 C

0 W/m

0.00 mm

10:20

9.4 C

1014.1 hpa

77 %

6.4 km/h aus 107

14.5 km/h aus W

5.6 C

8.6 C

8.7 C

9.3 C

0 W/m

0.00 mm

10:25

9.3 C

1014.1 hpa

77 %

6.4 km/h aus 109

12.9 km/h aus WNW

5.5 C

8.5 C

8.6 C

9.2 C

0 W/m

0.00 mm

10:25

9.3 C

1014.1 hpa

77 %

6.4 km/h aus 109

12.9 km/h aus WNW

5.5 C

8.5 C

8.6 C

9.2 C

0 W/m

0.00 mm

10:30

9.3 C

1014.3 hpa

77 %

3.2 km/h aus 107

8.0 km/h aus WNW

5.5 C

9.2 C

9.3 C

9.2 C

0 W/m

0.00 mm

10:30

9.3 C

1014.3 hpa

77 %

3.2 km/h aus 107

8.0 km/h aus WNW

5.5 C

9.2 C

9.3 C

9.2 C

0 W/m

0.00 mm

10:35

9.3 C

1014.3 hpa

77 %

6.4 km/h aus 109

14.5 km/h aus W

5.5 C

8.5 C

8.6 C

9.2 C

0 W/m

0.00 mm

10:35

9.3 C

1014.3 hpa

77 %

6.4 km/h aus 109

14.5 km/h aus W

5.5 C

8.5 C

8.6 C

9.2 C

0 W/m

0.00 mm

10:40

9.3 C

1014.3 hpa

77 %

6.4 km/h aus 107

11.3 km/h aus W

5.5 C

8.5 C

8.6 C

9.2 C

0 W/m

0.00 mm

10:40

9.3 C

1014.3 hpa

77 %

6.4 km/h aus 107

11.3 km/h aus W

5.5 C

8.5 C

8.6 C

9.2 C

0 W/m

0.00 mm

10:45

9.3 C

1014.4 hpa

77 %

4.8 km/h aus 104

9.7 km/h aus W

5.5 C

8.9 C

9.1 C

9.2 C

0 W/m

0.00 mm

10:45

9.3 C

1014.4 hpa

77 %

4.8 km/h aus 104

9.7 km/h aus W

5.5 C

8.9 C

9.1 C

9.2 C

0 W/m

0.00 mm

10:50

9.4 C

1014.4 hpa

77 %

6.4 km/h aus 104

14.5 km/h aus WNW

5.6 C

8.6 C

8.7 C

9.3 C

0 W/m

0.00 mm

10:50

9.4 C

1014.4 hpa

77 %

6.4 km/h aus 104

14.5 km/h aus WNW

5.6 C

8.6 C

8.7 C

9.3 C

0 W/m

0.00 mm

10:55

9.4 C

1014.4 hpa

77 %

4.8 km/h aus 111

8.0 km/h aus WNW

5.6 C

9.0 C

9.1 C

9.3 C

0 W/m

0.00 mm

10:55

9.4 C

1014.4 hpa

77 %

4.8 km/h aus 111

8.0 km/h aus WNW

5.6 C

9.0 C

9.1 C

9.3 C

0 W/m

0.00 mm

11:00

9.4 C

1014.4 hpa

77 %

4.8 km/h aus 108

8.0 km/h aus W

5.6 C

9.0 C

9.1 C

9.3 C

0 W/m

0.00 mm

11:00

9.4 C

1014.4 hpa

77 %

4.8 km/h aus 108

8.0 km/h aus W

5.6 C

9.0 C

9.1 C

9.3 C

0 W/m

0.00 mm

11:05

9.4 C

1014.4 hpa

77 %

6.4 km/h aus 106

11.3 km/h aus WNW

5.6 C

8.6 C

8.7 C

9.3 C

0 W/m

0.00 mm

11:05

9.4 C

1014.4 hpa

77 %

6.4 km/h aus 106

11.3 km/h aus WNW

5.6 C

8.6 C

8.7 C

9.3 C

0 W/m

0.00 mm

11:10

9.5 C

1014.4 hpa

76 %

3.2 km/h aus 103

9.7 km/h aus W

5.5 C

9.3 C

9.5 C

9.3 C

0 W/m

0.00 mm

11:10

9.5 C

1014.4 hpa

76 %

3.2 km/h aus 103

9.7 km/h aus W

5.5 C

9.3 C

9.5 C

9.3 C

0 W/m

0.00 mm

11:15

9.4 C

1014.4 hpa

76 %

4.8 km/h aus 108

11.3 km/h aus WNW

5.4 C

9.0 C

9.2 C

9.3 C

0 W/m

0.00 mm

11:15

9.4 C

1014.4 hpa

76 %

4.8 km/h aus 108

11.3 km/h aus WNW

5.4 C

9.0 C

9.2 C

9.3 C

0 W/m

0.00 mm

11:20

9.5 C

1014.4 hpa

76 %

6.4 km/h aus 106

11.3 km/h aus WNW

5.5 C

8.6 C

8.8 C

9.3 C

0 W/m

0.00 mm

11:20

9.5 C

1014.4 hpa

76 %

6.4 km/h aus 106

11.3 km/h aus WNW

5.5 C

8.6 C

8.8 C

9.3 C

0 W/m

0.00 mm

11:25

9.4 C

1014.4 hpa

75 %

3.2 km/h aus 105

6.4 km/h aus WNW

5.2 C

9.2 C

9.4 C

9.2 C

0 W/m

0.00 mm

11:25

9.4 C

1014.4 hpa

75 %

3.2 km/h aus 105

6.4 km/h aus WNW

5.2 C

9.2 C

9.4 C

9.2 C

0 W/m

0.00 mm

11:30

9.5 C

1014.4 hpa

76 %

3.2 km/h aus 101

8.0 km/h aus WNW

5.5 C

9.3 C

9.5 C

9.3 C

0 W/m

0.00 mm

11:30

9.5 C

1014.4 hpa

76 %

3.2 km/h aus 101

8.0 km/h aus WNW

5.5 C

9.3 C

9.5 C

9.3 C

0 W/m

0.00 mm

11:35

9.5 C

1014.4 hpa

74 %

4.8 km/h aus 107

9.7 km/h aus SW

5.1 C

9.1 C

9.2 C

9.3 C

0 W/m

0.00 mm

11:35

9.5 C

1014.4 hpa

74 %

4.8 km/h aus 107

9.7 km/h aus SW

5.1 C

9.1 C

9.2 C

9.3 C

0 W/m

0.00 mm

11:40

9.4 C

1014.4 hpa

73 %

6.4 km/h aus 105

14.5 km/h aus S

4.8 C

8.6 C

8.7 C

9.3 C

0 W/m

0.00 mm

11:40

9.4 C

1014.4 hpa

73 %

6.4 km/h aus 105

14.5 km/h aus S

4.8 C

8.6 C

8.7 C

9.3 C

0 W/m

0.00 mm

11:45

9.5 C

1014.4 hpa

72 %

3.2 km/h aus 112

9.7 km/h aus SSW

4.7 C

9.3 C

9.5 C

9.3 C

0 W/m

0.00 mm

11:45

9.5 C

1014.4 hpa

72 %

3.2 km/h aus 112

9.7 km/h aus SSW

4.7 C

9.3 C

9.5 C

9.3 C

0 W/m

0.00 mm

11:50

9.5 C

1014.4 hpa

69 %

9.7 km/h aus 106

14.5 km/h aus SSW

4.1 C

7.9 C

8.1 C

9.3 C

0 W/m

0.00 mm

11:50

9.5 C

1014.4 hpa

69 %

9.7 km/h aus 106

14.5 km/h aus SSW

4.1 C

7.9 C

8.1 C

9.3 C

0 W/m

0.00 mm

11:55

9.6 C

1014.4 hpa

67 %

8.0 km/h aus 106

17.7 km/h aus WSW

3.7 C

8.2 C

8.4 C

9.3 C

0 W/m

0.00 mm

11:55

9.6 C

1014.4 hpa

67 %

8.0 km/h aus 106

17.7 km/h aus WSW

3.7 C

8.2 C

8.4 C

9.3 C

0 W/m

0.00 mm

12:00

9.7 C

1014.4 hpa

62 %

9.7 km/h aus 113

16.1 km/h aus WSW

2.8 C

8.0 C

8.4 C

9.3 C

0 W/m

0.00 mm

12:00

9.7 C

1014.4 hpa

62 %

9.7 km/h aus 113

16.1 km/h aus WSW

2.8 C

8.0 C

8.4 C

9.3 C

0 W/m

0.00 mm

12:05

9.8 C

1014.4 hpa

62 %

6.4 km/h aus 107

16.1 km/h aus WSW

2.9 C

8.8 C

9.2 C

9.4 C

0 W/m

0.00 mm

12:05

9.8 C

1014.4 hpa

62 %

6.4 km/h aus 107

16.1 km/h aus WSW

2.9 C

8.8 C

9.2 C

9.4 C

0 W/m

0.00 mm

12:10

9.9 C

1014.4 hpa

61 %

8.0 km/h aus 108

16.1 km/h aus WSW

2.8 C

8.5 C

8.9 C

9.5 C

0 W/m

0.00 mm

12:15

10.0 C

1014.4 hpa

63 %

8.0 km/h aus 108

16.1 km/h aus SSW

3.3 C

8.6 C

9.0 C

9.6 C

0 W/m

0.00 mm

12:20

10.1 C

1014.4 hpa

63 %

9.7 km/h aus 107

16.1 km/h aus SW

3.4 C

8.4 C

8.8 C

9.7 C

0 W/m

0.00 mm

12:25

10.2 C

1014.4 hpa

64 %

6.4 km/h aus 104

14.5 km/h aus SW

3.7 C

9.2 C

9.6 C

9.8 C

0 W/m

0.00 mm

12:30

10.3 C

1014.4 hpa

68 %

9.7 km/h aus 109

16.1 km/h aus S

4.6 C

8.8 C

9.1 C

10.0 C

0 W/m

0.00 mm

12:35

10.2 C

1014.4 hpa

67 %

4.8 km/h aus 105

8.0 km/h aus S

4.4 C

9.7 C

10.1 C

9.9 C

0 W/m

0.00 mm

12:40

10.3 C

1014.4 hpa

65 %

6.4 km/h aus 110

11.3 km/h aus SW

4.0 C

9.4 C

9.7 C

9.9 C

0 W/m

0.00 mm

12:45

10.7 C

1014.4 hpa

57 %

9.7 km/h aus 108

16.1 km/h aus SSW

2.5 C

8.9 C

9.5 C

10.1 C

0 W/m

0.00 mm

12:50

11.6 C

1014.4 hpa

56 %

11.3 km/h aus 108

17.7 km/h aus WSW

3.1 C

9.6 C

10.3 C

10.8 C

0 W/m

0.00 mm

12:55

11.9 C

1014.4 hpa

54 %

8.0 km/h aus 106

11.3 km/h aus WSW

2.9 C

10.4 C

11.2 C

11.1 C

0 W/m

0.00 mm

13:00

12.0 C

1014.1 hpa

54 %

6.4 km/h aus 111

11.3 km/h aus WSW

3.0 C

10.8 C

11.7 C

11.2 C

0 W/m

0.00 mm

13:05

12.1 C

1014.1 hpa

55 %

6.4 km/h aus 109

17.7 km/h aus S

3.3 C

11.1 C

11.8 C

11.3 C

0 W/m

0.00 mm

13:10

12.5 C

1014.1 hpa

54 %

4.8 km/h aus 111

11.3 km/h aus SSE

3.4 C

11.7 C

12.5 C

11.7 C

0 W/m

0.00 mm

13:15

12.7 C

1014.0 hpa

52 %

9.7 km/h aus 108

19.3 km/h aus S

3.1 C

11.0 C

11.9 C

11.8 C

0 W/m

0.00 mm

13:20

12.9 C

1014.0 hpa

55 %

8.0 km/h aus 115

14.5 km/h aus SSW

4.1 C

11.6 C

12.4 C

12.1 C

0 W/m

0.00 mm

13:25

13.2 C

1014.0 hpa

52 %

9.7 km/h aus 108

19.3 km/h aus S

3.5 C

11.5 C

12.4 C

12.2 C

0 W/m

0.00 mm

13:30

13.3 C

1013.9 hpa

50 %

3.2 km/h aus 111

8.0 km/h aus SSW

3.1 C

12.3 C

13.3 C

12.3 C

0 W/m

0.00 mm

13:35

13.5 C

1013.9 hpa

54 %

11.3 km/h aus 110

17.7 km/h aus S

4.4 C

11.7 C

12.7 C

12.6 C

0 W/m

0.00 mm

13:40

13.1 C

1013.9 hpa

50 %

9.7 km/h aus 114

20.9 km/h aus S

2.9 C

11.3 C

12.4 C

12.1 C

0 W/m

0.00 mm

13:45

13.7 C

1013.8 hpa

54 %

12.9 km/h aus 111

24.1 km/h aus S

4.6 C

11.6 C

12.5 C

12.8 C

0 W/m

0.00 mm

13:50

13.6 C

1013.8 hpa

47 %

9.7 km/h aus 113

19.3 km/h aus SW

2.4 C

11.8 C

12.9 C

12.4 C

0 W/m

0.00 mm

13:55

13.6 C

1013.8 hpa

46 %

4.8 km/h aus 114

14.5 km/h aus WSW

2.1 C

12.4 C

13.6 C

12.4 C

0 W/m

0.00 mm

14:00

13.4 C

1013.5 hpa

49 %

8.0 km/h aus 117

16.1 km/h aus S

2.9 C

11.9 C

13.1 C

12.3 C

0 W/m

0.00 mm

14:05

13.9 C

1013.5 hpa

51 %

8.0 km/h aus 112

20.9 km/h aus SSE

4.0 C

12.6 C

13.6 C

12.9 C

0 W/m

0.00 mm

14:10

14.1 C

1013.5 hpa

46 %

9.7 km/h aus 115

20.9 km/h aus S

2.7 C

12.4 C

13.6 C

12.9 C

0 W/m

0.00 mm

14:15

14.2 C

1013.4 hpa

45 %

4.8 km/h aus 116

11.3 km/h aus WSW

2.4 C

12.9 C

14.2 C

12.9 C

0 W/m

0.00 mm

14:20

14.6 C

1013.4 hpa

49 %

11.3 km/h aus 115

24.1 km/h aus S

4.0 C

12.7 C

13.9 C

13.4 C

0 W/m

0.00 mm

14:25

14.5 C

1013.4 hpa

40 %

9.7 km/h aus 111

19.3 km/h aus SSW

1.0 C

12.6 C

14.1 C

13.1 C

0 W/m

0.00 mm

14:30

14.4 C

1013.4 hpa

45 %

4.8 km/h aus 114

9.7 km/h aus SW

2.6 C

13.2 C

14.4 C

13.2 C

0 W/m

0.00 mm

14:35

14.9 C

1013.4 hpa

40 %

4.8 km/h aus 111

16.1 km/h aus SW

1.4 C

13.4 C

14.9 C

13.4 C

0 W/m

0.00 mm

14:40

14.8 C

1013.4 hpa

38 %

9.7 km/h aus 112

22.5 km/h aus SW

0.6 C

12.8 C

14.4 C

13.2 C

0 W/m

0.00 mm

14:45

14.7 C

1013.4 hpa

36 %

4.8 km/h aus 113

11.3 km/h aus WSW

-0.3 C

13.0 C

14.7 C

13.0 C

0 W/m

0.00 mm

14:50

15.0 C

1013.4 hpa

39 %

3.2 km/h aus 115

14.5 km/h aus WNW

1.1 C

13.4 C

15.0 C

13.4 C

0 W/m

0.00 mm

14:55

15.0 C

1013.4 hpa

35 %

8.0 km/h aus 113

19.3 km/h aus SSW

-0.4 C

13.2 C

14.9 C

13.3 C

0 W/m

0.00 mm

15:00

15.2 C

1013.3 hpa

33 %

9.7 km/h aus 115

19.3 km/h aus WSW

-1.0 C

13.2 C

14.9 C

13.4 C

0 W/m

0.00 mm

15:05

15.3 C

1013.3 hpa

38 %

3.2 km/h aus 115

6.4 km/h aus WNW

1.1 C

13.7 C

15.3 C

13.7 C

0 W/m

0.00 mm

15:10

15.9 C

1013.3 hpa

32 %

9.7 km/h aus 111

19.3 km/h aus W

-0.8 C

13.9 C

15.8 C

14.1 C

0 W/m

0.00 mm

15:15

16.0 C

1012.9 hpa

34 %

9.7 km/h aus 111

20.9 km/h aus S

0.1 C

14.1 C

15.9 C

14.2 C

0 W/m

0.00 mm

15:20

15.7 C

1012.9 hpa

31 %

4.8 km/h aus 115

11.3 km/h aus W

-1.4 C

13.8 C

15.7 C

13.8 C

0 W/m

0.00 mm

15:25

15.7 C

1012.9 hpa

30 %

6.4 km/h aus 116

16.1 km/h aus W

-1.8 C

13.8 C

15.7 C

13.8 C

0 W/m

0.00 mm

15:30

15.7 C

1012.8 hpa

28 %

8.0 km/h aus 114

19.3 km/h aus W

-2.8 C

13.6 C

15.7 C

13.6 C

0 W/m

0.00 mm

15:35

15.8 C

1012.8 hpa

27 %

12.9 km/h aus 112

27.4 km/h aus WSW

-3.2 C

12.8 C

15.0 C

13.6 C

0 W/m

0.00 mm

15:40

15.8 C

1012.8 hpa

29 %

11.3 km/h aus 113

22.5 km/h aus WSW

-2.2 C

13.3 C

15.4 C

13.7 C

0 W/m

0.00 mm

15:45

15.8 C

1012.8 hpa

29 %

6.4 km/h aus 117

16.1 km/h aus WNW

-2.2 C

13.8 C

15.8 C

13.8 C

0 W/m

0.00 mm

15:50

15.9 C

1012.8 hpa

28 %

4.8 km/h aus 114

11.3 km/h aus SSW

-2.6 C

13.8 C

15.9 C

13.8 C

0 W/m

0.00 mm

15:55

16.0 C

1012.8 hpa

27 %

11.3 km/h aus 114

20.9 km/h aus SSW

-3.0 C

13.4 C

15.7 C

13.8 C

0 W/m

0.00 mm

16:00

16.0 C

1012.5 hpa

28 %

11.3 km/h aus 112

20.9 km/h aus WSW

-2.5 C

13.5 C

15.7 C

13.8 C

0 W/m

0.00 mm

16:05

16.0 C

1012.5 hpa

27 %

11.3 km/h aus 111

20.9 km/h aus WNW

-3.0 C

13.4 C

15.7 C

13.8 C

0 W/m

0.00 mm

16:10

15.9 C

1012.5 hpa

27 %

9.7 km/h aus 114

19.3 km/h aus WSW

-3.1 C

13.6 C

15.8 C

13.7 C

0 W/m

0.00 mm

16:15

15.9 C

1012.6 hpa

29 %

9.7 km/h aus 112

19.3 km/h aus WSW

-2.1 C

13.7 C

15.8 C

13.9 C

0 W/m

0.00 mm

16:20

16.2 C

1012.6 hpa

27 %

8.0 km/h aus 110

16.1 km/h aus WSW

-2.9 C

13.9 C

16.2 C

13.9 C

0 W/m

0.00 mm

16:25

15.9 C

1012.6 hpa

28 %

8.0 km/h aus 113

17.7 km/h aus W

-2.6 C

13.8 C

15.9 C

13.8 C

0 W/m

0.00 mm

16:30

16.1 C

1012.5 hpa

32 %

6.4 km/h aus 112

16.1 km/h aus SSW

-0.6 C

14.2 C

16.1 C

14.2 C

0 W/m

0.00 mm

16:35

16.0 C

1012.5 hpa

27 %

11.3 km/h aus 116

19.3 km/h aus SW

-3.0 C

13.4 C

15.7 C

13.8 C

0 W/m

0.00 mm

16:40

16.1 C

1012.5 hpa

27 %

11.3 km/h aus 112

22.5 km/h aus SSW

-3.0 C

13.5 C

15.7 C

13.8 C

0 W/m

0.00 mm

16:45

16.2 C

1012.7 hpa

27 %

11.3 km/h aus 105

20.9 km/h aus WSW

-2.8 C

13.7 C

15.9 C

14.0 C

0 W/m

0.00 mm

16:50

15.7 C

1012.7 hpa

27 %

8.0 km/h aus 112

17.7 km/h aus SSW

-3.3 C

13.5 C

15.7 C

13.5 C

0 W/m

0.00 mm

16:55

15.8 C

1012.7 hpa

30 %

8.0 km/h aus 108

16.1 km/h aus SSW

-1.8 C

13.8 C

15.8 C

13.8 C

0 W/m

0.00 mm

17:00

16.2 C

1012.7 hpa

28 %

8.0 km/h aus 112

24.1 km/h aus SW

-2.3 C

14.1 C

16.2 C

14.1 C

0 W/m

0.00 mm

17:05

16.0 C

1012.7 hpa

26 %

9.7 km/h aus 116

22.5 km/h aus SW

-3.5 C

13.6 C

15.9 C

13.7 C

0 W/m

0.00 mm

17:10

15.8 C

1012.7 hpa

26 %

6.4 km/h aus 110

17.7 km/h aus SSW

-3.7 C

13.5 C

15.8 C

13.5 C

0 W/m

0.00 mm

17:15

15.7 C

1012.7 hpa

27 %

9.7 km/h aus 106

22.5 km/h aus S

-3.3 C

13.3 C

15.6 C

13.5 C

0 W/m

0.00 mm

17:20

15.8 C

1012.7 hpa

31 %

9.7 km/h aus 113

19.3 km/h aus SSW

-1.3 C

13.7 C

15.7 C

13.9 C

0 W/m

0.00 mm

17:25

16.1 C

1012.7 hpa

28 %

8.0 km/h aus 111

17.7 km/h aus SW

-2.5 C

13.9 C

16.1 C

13.9 C

0 W/m

0.00 mm

17:30

15.9 C

1012.4 hpa

28 %

8.0 km/h aus 113

17.7 km/h aus S

-2.6 C

13.8 C

15.9 C

13.8 C

0 W/m

0.00 mm

17:35

16.0 C

1012.4 hpa

28 %

11.3 km/h aus 109

22.5 km/h aus S

-2.5 C

13.5 C

15.7 C

13.8 C

0 W/m

0.00 mm

17:40

16.0 C

1012.4 hpa

28 %

8.0 km/h aus 114

19.3 km/h aus WSW

-2.5 C

13.8 C

16.0 C

13.8 C

0 W/m

0.00 mm

17:45

15.9 C

1012.4 hpa

26 %

9.7 km/h aus 111

19.3 km/h aus SW

-3.6 C

13.4 C

15.7 C

13.6 C

0 W/m

0.00 mm

17:50

15.8 C

1012.4 hpa

25 %

12.9 km/h aus 110

20.9 km/h aus WSW

-4.2 C

12.7 C

15.1 C

13.5 C

0 W/m

0.00 mm

17:55

15.7 C

1012.4 hpa

25 %

12.9 km/h aus 109

19.3 km/h aus SW

-4.3 C

12.5 C

14.8 C

13.3 C

0 W/m

0.00 mm

18:00

15.6 C

1012.4 hpa

25 %

8.0 km/h aus 111

16.1 km/h aus S

-4.4 C

13.3 C

15.6 C

13.3 C

0 W/m

0.00 mm

18:05

15.7 C

1012.4 hpa

28 %

11.3 km/h aus 109

22.5 km/h aus S

-2.8 C

13.2 C

15.3 C

13.6 C

0 W/m

0.00 mm

18:10

15.5 C

1012.4 hpa

30 %

8.0 km/h aus 110

16.1 km/h aus S

-2.0 C

13.6 C

15.5 C

13.6 C

0 W/m

0.00 mm

18:15

15.5 C

1012.3 hpa

26 %

8.0 km/h aus 112

17.7 km/h aus SSW

-4.0 C

13.3 C

15.5 C

13.3 C

0 W/m

0.00 mm

18:20

15.6 C

1012.3 hpa

25 %

9.7 km/h aus 111

14.5 km/h aus SW

-4.4 C

13.1 C

15.4 C

13.3 C

0 W/m

0.00 mm

18:25

15.7 C

1012.3 hpa

28 %

4.8 km/h aus 109

8.0 km/h aus SW

-2.8 C

13.6 C

15.7 C

13.6 C

0 W/m

0.00 mm

18:30

15.6 C

1012.3 hpa

26 %

6.4 km/h aus 112

12.9 km/h aus SSW

-3.9 C

13.3 C

15.6 C

13.3 C

0 W/m

0.00 mm

18:35

15.3 C

1012.3 hpa

26 %

9.7 km/h aus 111

17.7 km/h aus SW

-4.1 C

12.8 C

15.0 C

13.1 C

0 W/m

0.00 mm

18:40

15.2 C

1012.3 hpa

26 %

8.0 km/h aus 113

19.3 km/h aus SSW

-4.2 C

12.9 C

15.2 C

13.0 C

0 W/m

0.00 mm

18:45

15.1 C

1012.4 hpa

26 %

11.3 km/h aus 109

24.1 km/h aus SSW

-4.3 C

12.3 C

14.5 C

12.8 C

0 W/m

0.00 mm

18:50

15.0 C

1012.4 hpa

27 %

3.2 km/h aus 114

8.0 km/h aus SW

-3.9 C

12.9 C

15.0 C

12.9 C

0 W/m

0.00 mm

18:55

15.0 C

1012.4 hpa

26 %

12.9 km/h aus 108

22.5 km/h aus SSW

-4.4 C

11.8 C

14.1 C

12.8 C

0 W/m

0.00 mm

19:00

15.0 C

1012.5 hpa

27 %

11.3 km/h aus 114

20.9 km/h aus WSW

-3.9 C

12.3 C

14.4 C

12.9 C

0 W/m

0.00 mm

19:05

14.8 C

1012.5 hpa

28 %

8.0 km/h aus 111

16.1 km/h aus WSW

-3.5 C

12.7 C

14.7 C

12.8 C

0 W/m

0.00 mm

19:10

14.7 C

1012.5 hpa

28 %

4.8 km/h aus 112

8.0 km/h aus WSW

-3.7 C

12.7 C

14.7 C

12.7 C

0 W/m

0.00 mm

19:15

14.5 C

1012.6 hpa

28 %

8.0 km/h aus 110

16.1 km/h aus WSW

-3.8 C

12.3 C

14.3 C

12.5 C

0 W/m

0.00 mm

19:20

14.4 C

1012.6 hpa

28 %

6.4 km/h aus 108

16.1 km/h aus SW

-3.9 C

12.4 C

14.4 C

12.4 C

0 W/m

0.00 mm

19:25

14.2 C

1012.6 hpa

30 %

4.8 km/h aus 103

9.7 km/h aus WSW

-3.1 C

12.4 C

14.2 C

12.4 C

0 W/m

0.00 mm

19:30

14.1 C

1012.5 hpa

30 %

4.8 km/h aus 108

9.7 km/h aus WSW

-3.3 C

12.3 C

14.1 C

12.3 C

0 W/m

0.00 mm

19:35

13.9 C

1012.5 hpa

32 %

3.2 km/h aus 106

8.0 km/h aus WSW

-2.6 C

12.2 C

13.9 C

12.2 C

0 W/m

0.00 mm

19:40

13.6 C

1012.5 hpa

32 %

3.2 km/h aus 106

6.4 km/h aus WSW

-2.8 C

11.9 C

13.6 C

11.9 C

0 W/m

0.00 mm

19:45

13.4 C

1012.6 hpa

32 %

1.6 km/h aus 108

4.8 km/h aus WSW

-2.9 C

11.8 C

13.4 C

11.8 C

0 W/m

0.00 mm

19:50

13.6 C

1012.6 hpa

31 %

3.2 km/h aus 108

8.0 km/h aus WSW

-3.2 C

11.9 C

13.6 C

11.9 C

0 W/m

0.00 mm

19:55

13.4 C

1012.6 hpa

34 %

3.2 km/h aus 114

8.0 km/h aus WSW

-2.1 C

11.8 C

13.4 C

11.8 C

0 W/m

0.00 mm

20:00

13.1 C

1012.6 hpa

36 %

1.6 km/h aus 113

6.4 km/h aus WSW

-1.6 C

11.6 C

13.1 C

11.6 C

0 W/m

0.00 mm

20:05

12.8 C

1012.6 hpa

37 %

3.2 km/h aus 107

6.4 km/h aus WSW

-1.5 C

11.4 C

12.8 C

11.4 C

0 W/m

0.00 mm

20:10

12.4 C

1012.6 hpa

38 %

1.6 km/h aus 105

6.4 km/h aus WSW

-1.6 C

11.1 C

12.4 C

11.1 C

0 W/m

0.00 mm

20:15

12.1 C

1012.7 hpa

41 %

3.2 km/h aus 103

4.8 km/h aus WSW

-0.8 C

10.9 C

12.1 C

10.9 C

0 W/m

0.00 mm

20:20

11.4 C

1012.7 hpa

44 %

1.6 km/h aus 107

3.2 km/h aus WSW

-0.4 C

10.4 C

11.4 C

10.4 C

0 W/m

0.00 mm

20:25

11.1 C

1012.7 hpa

46 %

1.6 km/h aus 104

3.2 km/h aus WSW

-0.1 C

10.2 C

11.1 C

10.2 C

0 W/m

0.00 mm

20:30

10.7 C

1012.8 hpa

47 %

3.2 km/h aus 99

4.8 km/h aus WSW

-0.2 C

9.8 C

10.7 C

9.8 C

0 W/m

0.00 mm

20:35

10.3 C

1012.8 hpa

49 %

3.2 km/h aus 104

4.8 km/h aus WSW

0.1 C

9.6 C

10.3 C

9.6 C

0 W/m

0.00 mm

20:40

10.2 C

1012.8 hpa

48 %

3.2 km/h aus 103

4.8 km/h aus WSW

-0.4 C

9.4 C

10.2 C

9.4 C

0 W/m

0.00 mm

20:45

9.9 C

1012.8 hpa

49 %

1.6 km/h aus 108

3.2 km/h aus WSW

-0.3 C

9.3 C

9.9 C

9.3 C

0 W/m

0.00 mm

20:50

9.8 C

1012.8 hpa

49 %

1.6 km/h aus 111

3.2 km/h aus WSW

-0.4 C

9.1 C

9.8 C

9.1 C

0 W/m

0.00 mm

20:55

9.7 C

1012.8 hpa

49 %

0.0 km/h aus 109

3.2 km/h aus WSW

-0.5 C

9.1 C

9.7 C

9.1 C

0 W/m

0.00 mm

21:00

9.3 C

1012.9 hpa

52 %

1.6 km/h aus 111

3.2 km/h aus WSW

-0.1 C

8.7 C

9.3 C

8.7 C

0 W/m

0.00 mm

21:05

9.1 C

1012.9 hpa

53 %

1.6 km/h aus 105

3.2 km/h aus WSW

0.0 C

8.5 C

9.1 C

8.5 C

0 W/m

0.00 mm

21:10

9.0 C

1012.9 hpa

54 %

1.6 km/h aus 104

3.2 km/h aus WSW

0.2 C

8.4 C

9.0 C

8.4 C

0 W/m

0.00 mm

21:15

8.8 C

1012.9 hpa

55 %

0.0 km/h aus 107

1.6 km/h aus WSW

0.2 C

8.2 C

8.8 C

8.2 C

0 W/m

0.00 mm

21:20

8.6 C

1012.9 hpa

56 %

0.0 km/h aus 102

1.6 km/h aus WSW

0.3 C

8.1 C

8.6 C

8.1 C

0 W/m

0.00 mm

21:25

8.5 C

1012.9 hpa

58 %

1.6 km/h aus 112

3.2 km/h aus WSW

0.7 C

8.0 C

8.5 C

8.0 C

0 W/m

0.00 mm

21:30

8.3 C

1013.0 hpa

60 %

1.6 km/h aus 107

3.2 km/h aus WSW

1.0 C

7.8 C

8.3 C

7.8 C

0 W/m

0.00 mm

21:35

7.9 C

1013.0 hpa

61 %

0.0 km/h aus 106

1.6 km/h aus WSW

0.9 C

7.5 C

7.9 C

7.5 C

0 W/m

0.00 mm

21:40

7.8 C

1013.0 hpa

60 %

0.0 km/h aus 113

1.6 km/h aus WSW

0.5 C

7.4 C

7.8 C

7.4 C

0 W/m

0.00 mm

21:45

7.7 C

1013.0 hpa

61 %

0.0 km/h aus 106

1.6 km/h aus WSW

0.7 C

7.3 C

7.7 C

7.3 C

0 W/m

0.00 mm

21:50

7.7 C

1013.0 hpa

61 %

0.0 km/h aus 107

3.2 km/h aus WSW

0.6 C

7.2 C

7.7 C

7.2 C

0 W/m

0.00 mm

21:55

7.4 C

1013.0 hpa

62 %

1.6 km/h aus 109

3.2 km/h aus WSW

0.6 C

7.0 C

7.4 C

7.0 C

0 W/m

0.00 mm

22:00

7.3 C

1012.9 hpa

63 %

1.6 km/h aus 114

3.2 km/h aus WSW

0.7 C

6.9 C

7.3 C

6.9 C

0 W/m

0.00 mm

22:05

7.3 C

1012.9 hpa

63 %

0.0 km/h aus 118

0.0 km/h aus ---

0.7 C

6.9 C

7.3 C

6.9 C

0 W/m

0.00 mm

22:10

7.2 C

1012.9 hpa

63 %

0.0 km/h aus 116

3.2 km/h aus WSW

0.6 C

6.8 C

7.2 C

6.8 C

0 W/m

0.00 mm

22:15

7.2 C

1013.0 hpa

63 %

0.0 km/h aus 117

3.2 km/h aus WSW

0.6 C

6.8 C

7.2 C

6.8 C

0 W/m

0.00 mm

22:20

7.1 C

1013.0 hpa

63 %

0.0 km/h aus 117

3.2 km/h aus WSW

0.5 C

6.7 C

7.1 C

6.7 C

0 W/m

0.00 mm

22:25

7.1 C

1013.0 hpa

62 %

0.0 km/h aus 117

1.6 km/h aus WSW

0.3 C

6.6 C

7.1 C

6.6 C

0 W/m

0.00 mm

22:30

7.1 C

1012.9 hpa

62 %

0.0 km/h aus 117

3.2 km/h aus WSW

0.3 C

6.6 C

7.1 C

6.6 C

0 W/m

0.00 mm

22:35

7.0 C

1012.9 hpa

62 %

0.0 km/h aus 117

3.2 km/h aus WSW

0.2 C

6.6 C

7.0 C

6.6 C

0 W/m

0.00 mm

22:40

6.9 C

1012.9 hpa

62 %

1.6 km/h aus 116

3.2 km/h aus WSW

0.2 C

6.5 C

6.9 C

6.5 C

0 W/m

0.00 mm

22:45

6.9 C

1013.0 hpa

62 %

0.0 km/h aus 117

1.6 km/h aus WSW

0.1 C

6.4 C

6.9 C

6.4 C

0 W/m

0.00 mm

22:50

6.8 C

1013.0 hpa

62 %

0.0 km/h aus 117

3.2 km/h aus WSW

0.1 C

6.4 C

6.8 C

6.4 C

0 W/m

0.00 mm

22:55

6.8 C

1013.0 hpa

62 %

0.0 km/h aus 117

3.2 km/h aus WSW

0.0 C

6.3 C

6.8 C

6.3 C

0 W/m

0.00 mm

23:00

6.7 C

1013.0 hpa

61 %

0.0 km/h aus 117

1.6 km/h aus WSW

-0.3 C

6.2 C

6.7 C

6.2 C

0 W/m

0.00 mm

23:05

6.6 C

1013.0 hpa

61 %

0.0 km/h aus 115

3.2 km/h aus WSW

-0.4 C

6.2 C

6.6 C

6.2 C

0 W/m

0.00 mm

23:10

6.5 C

1013.0 hpa

61 %

1.6 km/h aus 118

3.2 km/h aus WSW

-0.5 C

6.1 C

6.5 C

6.1 C

0 W/m

0.00 mm

23:15

6.4 C

1013.0 hpa

61 %

1.6 km/h aus 117

3.2 km/h aus WSW

-0.5 C

6.0 C

6.4 C

6.0 C

0 W/m

0.00 mm

23:20

6.3 C

1013.0 hpa

61 %

3.2 km/h aus 117

3.2 km/h aus WSW

-0.6 C

5.9 C

6.3 C

5.9 C

0 W/m

0.00 mm

23:25

6.3 C

1013.0 hpa

61 %

3.2 km/h aus 117

4.8 km/h aus WSW

-0.7 C

5.8 C

6.3 C

5.8 C

0 W/m

0.00 mm

23:30

6.2 C

1013.1 hpa

62 %

3.2 km/h aus 117

4.8 km/h aus WSW

-0.5 C

5.8 C

6.2 C

5.8 C

0 W/m

0.00 mm

23:35

6.2 C

1013.1 hpa

62 %

3.2 km/h aus 117

4.8 km/h aus WSW

-0.6 C

5.7 C

6.2 C

5.7 C

0 W/m

0.00 mm

23:40

6.2 C

1013.1 hpa

63 %

4.8 km/h aus 116

6.4 km/h aus WSW

-0.4 C

5.1 C

5.5 C

5.8 C

0 W/m

0.00 mm

23:45

6.1 C

1012.9 hpa

64 %

4.8 km/h aus 117

6.4 km/h aus WSW

-0.2 C

5.1 C

5.4 C

5.7 C

0 W/m

0.00 mm

23:50

6.1 C

1012.9 hpa

64 %

4.8 km/h aus 117

6.4 km/h aus WSW

-0.2 C

5.1 C

5.4 C

5.7 C

0 W/m

0.00 mm

23:55

6.1 C

1012.9 hpa

65 %

4.8 km/h aus 117

6.4 km/h aus WSW

0.0 C

5.1 C

5.4 C

5.7 C

0 W/m

0.00 mm